Showing default

QIANFAN-108, 66050

Orbit data source: Space-Track

QIANFAN-108, 66050 is a Chinese payload satellite in LEO that was launched on Fri, 17 Oct 2025 UTC via a CHANG ZHENG 6A launch vehicle from the Taiyaun Space Center, China (TSC). Payload-class satellites include a variety of spacecraft equipped with specific instruments for various scientific and technological missions. These include communications satellites like Starlink; space stations such as the ISS; scientific satellites like the Hubble; Earth observation satellites from companies like Planet Labs, Umbra, and HawkEye 360; GPS; miniature CubeSats for education and research; and military/defense satellites.

Loading next visibility...
Identifier
66050, 2025-233T
Orbit
LEO
Country
Flag of CNCN / PRC
Related business
Manufacturer
SECM
Mission
Operational Commercial Communications
Bus & Motor
QIANFAN, Unknown motor
Mass
267 kg wet, ~267 kg dry
Launch date (UTC)
2025-10-17 (7 months ago)
Launch vehicle
CHANG ZHENG 6A
Launch site
Taiyaun Space Center, China (TSC)
Object type
Payload
Rocket body
Debris
Shape & HBR
Box + 1 Pan, 14.5 m
Radar Cross Section
13.200 m²

Expand to show TLE details & history
Last TLE update: 7 hours ago

TLE from 7 hours ago
0 QIANFAN-108
1 66050U 25233T   26130.13489282  .00000130  00000-0  18283-3 0  9990
2 66050  89.0022  47.0157 0001941  75.8849 284.2518 13.51016371 28053
Epoch: 2026-05-10T03:14Z
TLE epoch observation values (Epoch: 2026-05-10T03:14:14.739Z)
Latitude
-0.00001°
Longitude
130.51196°
Altitude
1,071.119 km
Speed
7.317 km/s
True Right ascension
03h 08m 03s
True Declination
0° 00' 00"
Sunlit
Object was in daylight at epoch
Visualization orbit readout
Latitude
Unknown
Longitude
Unknown
Altitude
Unknown
Speed
Unknown
Apparent Right ascension
Unknown
Apparent Declination
Unknown
Sunlit
N/A
Visualization observer readout
Local Sidereal Time
18:56:23
Azimuth
Unknown
Elevation
Unknown
Doppler factor
Unknown
Orbital elements
Apogee altitude
1,067.017 km
Perigee altitude
1,064.128 km
Semi-major axis
7,443.709 km
Eccentricity
0.00019
Inclination
89.0022°
RAAN
47.0157°
Arg. of periapsis
75.8849°
True anomaly
284.23024°
Mean anomaly
284.2518°
Eccentric anomaly
284.24102°
Mean motion
3.37955 °/min
Orbital period
106.52 mins
BSTAR
0.00018283
Loading maneuver chart data...
Computing Atmospheric mass density...
Loading historical data...
Loading historical data...
Loading historical data...
Loading historical data...
Loading historical data...
Loading historical data...
Loading historical data...

Documentation

Showing up to 5 results
|